Theta_e
344 348 348 351 351 351 350 351 351 350 349 348 348 347 347 346 346 346 346 348 349 350 349 348 349 347 347 347 346 345 345 345 345 345 345 345 345 345 344 344 345 347 348 347 347 347 346 346 346 346 346 347 346 350 348 342 344 344 342 343 344 343
345 348 347 347 350 352 351 351 351 351 351 350 348 347 346 344 345 345 345 347 348 348 347 348 349 347 347 347 346 346 345 345 344 344 345 345 344 345 345 345 345 346 347 346 346 347 347 346 345 345 345 343 347 349 346 344 345 343 343 342 344 343
345 347 347 346 349 351 350 349 348 350 349 349 349 348 345 343 340 342 343 344 345 347 345 347 348 347 347 347 346 346 345 345 344 344 345 345 345 344 345 345 344 346 347 346 346 345 346 346 346 346 346 346 348 349 345 343 345 343 343 342 343 342
345 347 346 347 350 351 350 348 346 351 350 350 349 347 343 342 340 340 341 341 342 345 345 347 347 350 349 347 346 345 344 344 344 344 344 345 345 345 345 345 345 345 347 346 343 345 344 348 346 347 352 351 348 346 348 351 343 342 343 342 342 342
346 347 347 346 347 349 350 347 345 348 350 348 348 345 342 344 342 342 341 342 342 341 343 343 346 346 345 347 347 344 344 342 343 344 344 341 341 340 342 336 338 341 336 337 341 341 343 346 345 344 345 348 346 345 346 342 343 341 340 341 342 341
347 346 347 346 347 348 349 345 345 348 348 349 349 344 342 343 341 342 342 340 341 342 341 343 342 342 345 346 345 343 339 341 342 343 342 342 337 338 335 334 334 331 332 335 340 341 340 343 343 345 348 348 349 345 344 341 341 340 341 341 341 339
346 345 345 345 347 349 348 345 345 346 346 346 348 345 342 340 342 342 342 342 341 340 340 340 341 342 343 343 344 339 340 342 342 342 339 342 338 338 332 336 335 332 336 338 337 338 339 344 343 344 346 345 345 339 342 339 339 340 339 340 339 337
345 346 346 344 344 347 348 347 344 347 346 346 346 344 343 342 343 342 342 343 341 342 340 339 340 339 341 342 341 343 342 341 341 341 337 342 341 339 332 337 339 337 336 337 337 338 340 344 345 345 344 344 341 343 347 339 339 339 337 338 337 335
346 346 346 345 342 343 345 347 346 346 344 348 346 345 343 343 340 341 341 343 342 342 342 341 342 341 343 342 343 344 342 341 342 342 339 338 341 340 334 337 338 336 338 338 338 341 342 343 345 346 345 343 341 339 338 339 338 336 336 335 335 333
345 345 346 345 343 342 342 346 345 344 345 347 345 346 345 340 340 340 340 342 342 343 343 342 343 343 343 343 344 344 344 343 341 342 342 339 341 337 334 338 337 337 334 338 340 341 342 342 344 344 344 341 341 338 339 337 336 334 334 334 333 333
345 348 346 343 343 343 344 342 344 343 344 344 345 345 342 341 340 341 342 344 343 344 345 344 344 345 344 343 346 345 344 344 343 344 344 341 342 338 337 338 337 334 338 340 340 345 346 342 342 342 344 341 340 339 337 338 335 332 332 332 331 331
346 347 347 343 343 342 342 341 343 342 343 345 347 343 340 340 339 341 342 344 344 345 346 345 345 346 345 345 346 344 344 344 342 343 341 339 337 341 340 337 335 337 342 349 347 344 344 341 341 343 341 341 337 337 335 335 331 331 331 332 331 331
346 347 346 343 340 340 343 342 342 342 343 344 344 343 341 339 341 343 343 344 345 346 347 346 346 345 344 343 343 344 341 343 341 341 338 340 341 341 339 338 342 343 347 346 346 343 342 343 340 342 341 335 336 335 334 333 334 333 332 331 330 330
346 345 346 343 343 341 342 342 342 342 344 345 344 342 341 341 341 343 344 344 346 346 346 346 346 345 343 340 342 340 339 340 339 341 339 343 341 340 340 345 344 343 343 344 344 341 342 340 343 343 337 336 338 337 336 333 332 331 330 330 330 331
346 345 345 343 342 343 343 341 340 341 340 344 342 341 341 342 341 343 343 343 345 345 343 345 345 344 342 339 341 341 340 340 341 342 338 342 339 343 346 344 349 346 343 342 343 341 339 338 336 337 336 337 336 335 335 333 331 330 327 328 329 329
346 346 346 346 345 345 343 344 342 343 343 345 342 342 340 342 343 342 342 341 345 344 341 345 343 343 344 345 342 340 341 340 342 342 337 341 346 344 344 345 343 343 341 339 339 336 339 338 334 336 335 336 336 335 334 330 329 326 326 326 325 326
345 345 346 345 344 345 345 343 344 342 341 344 341 342 340 342 343 342 337 336 342 343 343 343 343 346 348 348 345 346 344 345 346 339 342 349 347 344 343 343 341 345 343 340 337 336 337 338 336 336 338 337 335 336 333 329 327 327 325 325 322 320
346 347 346 346 346 347 345 343 343 342 343 341 342 341 342 342 341 337 335 335 340 344 344 345 347 347 348 347 346 346 349 351 349 349 349 352 348 347 345 345 338 340 343 341 338 336 336 336 335 334 333 334 334 334 330 328 327 327 325 321 321 320
346 347 346 346 346 345 347 345 343 343 343 342 343 341 342 340 339 336 332 337 340 344 345 346 345 347 347 345 345 346 349 352 351 351 349 346 345 344 344 342 338 337 341 342 339 337 337 335 334 332 330 333 334 332 330 326 326 326 323 321 319 318
346 346 346 346 344 342 340 340 339 341 342 341 341 340 342 341 340 333 333 340 342 346 343 344 344 346 347 347 345 345 350 352 351 349 349 347 345 343 345 341 338 337 338 338 340 337 336 335 333 332 332 332 333 331 327 325 325 322 323 321 319 319
347 347 344 342 342 341 339 338 340 340 340 341 340 341 341 342 340 332 335 343 344 344 344 345 344 344 346 347 346 345 349 348 350 350 347 347 345 345 346 347 339 337 339 337 337 337 337 336 330 328 330 330 328 328 328 325 324 321 320 320 318 317
348 347 346 345 343 342 342 340 338 340 341 341 340 339 339 341 341 334 337 344 346 345 344 345 346 345 347 346 347 345 345 346 347 347 348 346 348 346 346 342 339 336 339 336 332 336 337 334 328 326 324 324 325 325 325 325 322 320 319 319 319 319
349 347 346 345 344 343 344 344 342 341 342 341 343 343 340 342 342 335 338 344 346 345 344 344 345 345 346 346 347 346 345 345 347 348 347 346 347 345 347 346 338 339 337 337 336 339 336 335 329 330 329 325 320 319 321 321 323 321 319 320 318 317
348 347 346 347 347 347 347 347 347 345 345 344 341 343 344 343 343 339 337 344 345 345 345 344 344 344 345 345 347 346 346 344 346 348 347 346 341 345 344 344 344 340 338 334 333 336 337 336 335 330 322 322 322 320 316 317 319 321 320 319 318 317
348 347 348 348 347 349 347 346 345 346 346 344 344 341 341 339 341 338 338 342 342 345 344 342 344 343 343 345 346 347 345 345 347 347 348 347 344 343 341 342 342 341 337 336 331 333 335 337 339 336 329 323 321 318 319 321 319 319 320 317 317 317
349 348 347 348 349 348 346 344 342 341 339 339 338 338 337 337 336 335 337 342 342 343 344 343 343 343 342 343 345 346 347 347 347 347 347 346 347 346 343 342 340 340 340 342 336 335 334 337 339 337 336 335 331 324 324 321 320 314 321 321 319 318
349 348 349 349 350 349 346 345 345 343 342 340 338 340 342 342 338 337 340 342 340 344 342 342 343 343 343 343 344 346 347 348 348 348 346 347 345 343 343 341 343 341 343 342 340 334 332 333 337 337 335 334 334 334 330 323 318 320 314 318 320 318
350 349 350 350 349 349 347 347 346 346 344 342 341 341 343 342 341 338 339 340 339 340 342 341 342 342 344 344 344 345 347 348 347 348 347 345 344 344 344 344 343 343 341 340 340 337 335 336 331 331 334 334 333 334 331 330 329 325 321 317 315 319
351 349 350 351 349 348 348 348 348 346 344 344 343 343 343 341 338 336 335 335 337 339 342 343 343 344 345 345 344 346 348 348 347 346 345 344 344 342 342 344 343 342 341 342 342 340 338 336 334 333 332 332 332 331 329 330 329 328 323 319 317 315
350 350 350 350 350 349 349 349 348 347 345 344 343 343 344 340 338 338 334 338 341 340 341 342 343 344 345 345 344 346 347 347 347 347 344 342 343 341 342 345 343 343 343 342 341 340 338 338 337 335 334 333 329 328 328 327 326 324 325 324 317 316
349 349 351 350 349 348 349 349 348 348 347 345 344 343 341 341 341 341 338 339 340 340 341 340 342 343 344 345 345 346 347 347 348 348 343 343 345 341 340 341 342 342 342 340 339 341 339 338 337 335 333 332 330 328 326 324 324 322 323 321 319 318
348 349 350 351 350 349 348 349 350 350 348 347 345 343 342 342 341 341 340 339 339 340 340 340 342 342 344 345 345 346 348 347 346 347 344 343 342 339 341 341 341 340 339 340 341 339 338 337 336 335 335 333 332 331 330 328 327 327 323 321 321 319
347 348 349 350 350 349 349 349 349 349 349 349 347 345 343 343 343 342 341 340 340 338 338 338 339 341 342 346 345 347 347 346 346 346 345 341 343 341 340 340 339 342 342 341 338 340 337 336 336 335 334 335 333 331 330 331 330 328 327 326 323 320
348 350 350 350 350 349 349 350 351 350 350 348 348 347 346 344 344 343 343 341 340 339 338 339 339 341 342 345 345 346 348 347 346 347 344 343 342 342 341 339 342 343 342 341 341 340 339 339 339 338 337 333 333 332 332 332 331 329 327 326 322 320
346 347 348 349 350 349 349 350 350 351 351 350 349 348 346 346 346 343 343 342 342 341 340 339 338 341 342 343 346 346 347 347 348 345 342 340 341 341 340 339 343 343 342 343 341 340 339 338 337 336 337 335 333 332 332 332 331 330 328 328 326 324
346 348 349 349 349 349 349 350 351 351 351 350 349 349 348 347 347 346 345 342 343 343 342 341 341 341 343 343 345 346 347 347 344 347 341 341 340 339 340 343 341 342 342 343 341 340 340 340 338 338 337 336 335 333 333 332 331 330 329 330 328 327
347 349 350 349 350 350 349 350 351 351 351 350 349 349 348 348 348 348 347 345 344 343 344 343 343 343 343 344 345 346 346 346 346 342 342 342 343 341 341 341 340 340 339 340 340 340 340 339 338 338 336 336 334 334 333 334 332 331 330 330 328 327
Wind_Speed
14 15 14 14 12 13 14 17 16 16 16 15 14 13 12 12 11 10 11 11 11 10 12 11 12 12 14 11 11 12 12 11 11 10 10 9 9 9 8 7 7 7 9 10 9 9 8 7 6 4 3 4 8 3 5 8 6 3 5 8 9 10
13 17 14 12 11 11 12 15 14 14 13 13 13 13 11 10 11 10 10 10 9 9 9 10 10 12 11 11 12 13 12 11 10 10 8 9 9 9 9 8 7 8 10 10 11 7 7 7 6 4 4 1 2 3 2 7 2 6 8 8 9 11
15 16 14 12 11 12 14 11 13 12 12 13 13 12 10 10 10 11 12 10 9 8 9 9 9 10 9 13 12 13 12 11 11 10 9 8 9 9 9 8 8 9 10 11 10 6 7 7 6 7 5 1 3 3 5 5 2 7 8 8 9 15
14 15 13 10 12 12 12 11 11 12 11 11 12 10 10 10 9 10 10 10 8 8 9 8 12 15 13 11 11 13 13 12 11 10 9 8 8 8 9 9 9 10 9 9 8 7 6 6 7 5 0 1 2 4 2 2 8 6 7 10 10 16
14 12 15 11 12 11 12 11 10 11 11 11 11 10 9 9 9 10 11 9 10 9 9 8 9 9 9 9 10 10 9 9 9 9 11 8 8 8 8 8 8 8 8 9 10 7 5 5 6 4 1 2 4 11 5 6 6 8 8 9 11 14
13 15 13 10 11 10 11 10 10 12 11 10 11 10 9 9 9 10 9 10 9 10 9 8 9 8 9 9 10 9 10 9 10 10 10 8 8 8 9 9 9 10 9 9 8 4 6 6 6 8 5 3 5 3 5 4 7 9 9 10 12 17
13 13 14 12 11 10 10 9 10 9 11 10 10 9 9 9 9 10 10 10 9 8 8 8 8 9 10 9 10 9 8 9 9 9 10 9 10 9 9 9 9 9 10 8 6 5 4 4 5 6 4 1 7 3 4 5 7 8 9 10 11 15
12 12 10 13 12 11 10 10 10 9 10 10 10 9 9 8 9 9 10 9 9 8 9 8 10 11 10 9 8 8 9 9 10 9 10 9 9 8 9 8 8 10 8 6 6 5 4 5 5 6 4 3 5 5 4 5 7 7 8 8 9 12
14 14 12 12 12 10 10 10 9 10 10 10 10 9 8 9 8 9 9 10 9 9 9 8 9 9 8 8 8 9 9 8 9 9 9 9 8 8 8 7 6 7 6 6 5 4 5 4 7 4 2 1 6 4 4 6 6 7 8 8 8 9
15 14 13 12 11 11 10 10 10 10 9 9 9 8 10 9 9 9 9 10 10 9 9 8 9 9 8 9 8 8 7 7 8 7 7 9 7 7 7 6 6 7 7 6 4 6 3 3 9 3 1 1 7 3 3 4 5 8 9 8 7 7
14 13 13 13 11 11 10 10 11 10 10 9 9 9 9 7 9 8 9 9 10 10 9 8 9 9 8 8 8 8 7 7 7 7 7 8 6 6 7 6 6 6 5 5 4 7 6 5 5 3 2 3 9 4 4 4 5 6 8 10 9 7
14 12 12 13 10 10 11 11 11 10 10 10 9 9 9 9 8 8 9 10 10 9 9 8 9 9 8 8 8 8 8 7 8 7 7 7 7 7 6 7 8 6 2 7 7 6 3 3 3 3 2 11 5 4 4 2 3 4 6 6 6 8
17 14 14 14 12 11 11 11 11 10 9 9 9 9 9 8 8 8 9 10 10 11 9 8 8 9 9 8 8 8 8 7 7 7 7 7 8 7 7 6 5 3 7 3 4 6 5 2 2 3 8 5 4 4 4 3 4 4 4 5 5 6
16 17 16 13 11 10 11 11 10 10 10 11 9 9 9 9 8 8 9 10 11 11 10 8 9 9 8 8 8 8 7 7 7 7 7 7 7 7 7 3 4 4 8 3 2 5 1 3 3 4 8 5 4 4 3 4 4 4 3 4 5 6
15 16 15 13 13 12 11 11 11 10 10 9 9 9 9 9 9 9 9 10 11 10 11 9 9 8 8 8 7 8 8 7 6 7 7 7 8 6 7 7 1 5 6 5 3 5 3 1 3 11 5 4 5 4 2 4 3 4 4 4 5 6
18 16 14 12 12 11 11 10 9 10 9 10 9 9 9 9 9 9 9 10 11 10 10 9 10 9 8 8 8 7 7 7 7 7 7 7 7 7 5 4 7 4 6 6 5 4 3 5 9 3 5 3 4 3 3 3 3 4 4 4 4 4
20 18 16 14 13 11 11 11 10 9 10 9 9 9 9 9 9 9 9 9 11 10 10 10 10 10 8 8 7 7 7 7 7 7 7 6 6 6 6 2 6 4 5 6 5 6 6 5 5 5 4 1 4 3 4 3 3 3 4 4 4 5
17 17 14 13 11 9 10 11 10 9 10 10 11 10 9 10 9 8 9 9 11 11 10 11 9 9 8 8 8 7 7 8 8 7 7 5 7 5 3 6 9 2 4 6 5 7 7 6 6 5 4 3 4 3 4 2 3 2 3 4 4 5
17 16 13 12 11 10 10 10 10 10 10 11 10 9 9 9 9 8 9 10 12 11 10 11 10 10 9 8 7 8 7 8 8 7 7 8 7 8 5 8 8 5 3 5 4 7 6 7 6 6 6 3 4 3 3 3 3 3 3 3 5 5
16 17 15 13 13 12 12 12 12 11 11 10 10 9 10 10 9 8 9 10 12 10 10 10 11 10 9 8 8 8 6 6 7 7 7 7 5 8 8 9 11 9 6 4 4 7 8 7 7 7 6 5 3 4 5 4 4 4 3 4 4 4
15 16 15 15 15 14 14 13 12 12 11 10 10 10 9 9 8 8 10 11 13 10 11 11 11 11 9 8 8 7 8 7 8 7 8 5 7 8 8 6 9 5 9 7 4 6 8 8 9 7 6 7 3 3 3 4 5 5 5 4 4 4
16 16 16 15 14 13 13 13 13 12 11 10 10 10 10 9 9 8 10 11 11 11 11 11 10 11 9 9 8 7 8 8 8 7 6 8 8 6 7 7 8 5 6 8 6 9 9 10 8 9 9 6 4 3 3 4 5 5 5 5 5 4
16 17 16 15 14 12 12 12 12 12 12 11 11 11 10 10 9 9 10 11 11 11 11 11 11 10 9 9 8 8 7 7 8 6 6 8 6 8 6 6 9 7 7 4 6 6 11 11 9 9 8 7 6 6 5 5 6 6 6 5 5 6
16 16 15 14 13 13 13 12 13 13 13 11 10 10 9 9 10 10 11 11 11 11 12 11 12 11 9 9 9 8 7 7 8 7 7 7 7 7 5 7 8 9 7 7 8 8 11 11 7 10 8 7 6 6 6 8 7 6 7 7 7 6
16 14 13 15 15 14 13 13 11 11 11 11 10 9 7 8 9 11 10 11 11 12 12 11 11 12 10 9 9 8 8 8 8 8 7 7 7 7 9 8 9 7 10 9 9 9 11 10 8 8 4 6 3 5 6 6 8 6 7 7 8 7
15 13 14 16 16 14 13 14 14 13 13 11 11 10 10 10 12 12 11 11 12 12 12 11 10 11 11 10 10 10 9 8 8 8 8 6 6 7 9 11 10 9 10 8 7 9 9 8 7 7 7 2 3 2 3 8 8 6 6 7 7 8
16 14 14 16 18 13 14 13 15 15 15 14 12 10 9 10 9 10 10 11 11 11 12 11 10 11 11 10 10 10 9 9 8 8 7 7 3 6 8 9 8 9 7 5 7 8 10 9 6 7 8 6 6 4 4 5 4 6 7 7 7 8
13 14 14 16 19 16 15 14 14 14 13 14 12 12 12 11 11 10 11 11 10 10 11 11 11 11 11 11 10 10 10 9 9 8 8 7 6 7 8 7 8 8 7 9 9 8 9 9 9 7 9 8 7 6 7 5 6 5 4 4 7 8
14 14 14 18 16 16 14 15 15 13 13 12 14 12 12 11 10 10 11 10 10 10 10 11 11 11 11 12 10 10 10 10 9 9 7 6 7 6 9 7 8 7 8 7 7 7 7 7 10 7 7 9 8 7 7 7 6 5 5 6 6 9
18 15 15 18 16 17 16 15 16 15 15 14 13 12 12 11 10 10 11 11 11 10 10 9 11 12 12 12 12 11 10 11 10 9 6 9 7 6 6 6 7 8 8 8 6 7 7 7 7 7 7 6 7 8 7 6 7 6 5 7 8 5
19 15 15 15 16 16 16 15 15 16 17 16 17 15 14 13 12 12 12 12 11 11 10 11 11 11 12 12 11 11 10 10 9 7 6 3 4 3 6 4 7 10 9 10 7 7 8 8 6 6 8 7 7 7 7 7 7 6 6 7 7 8
17 14 14 15 16 14 15 15 15 16 17 16 17 15 16 16 15 14 13 12 11 11 11 10 10 10 11 12 11 10 11 10 9 8 5 4 4 6 3 6 7 10 9 9 8 8 8 8 8 6 8 7 7 6 6 6 6 5 6 6 7 7
20 18 16 17 16 16 16 15 16 17 17 15 16 16 17 16 15 13 12 13 12 12 12 12 12 11 12 13 11 10 11 10 9 7 6 6 6 6 4 6 11 9 9 9 9 9 8 8 9 8 7 8 7 7 7 6 5 6 6 6 6 7
20 19 18 17 16 16 17 16 16 16 16 16 15 15 15 15 15 13 13 13 13 13 13 13 12 12 12 13 11 10 9 9 8 7 6 5 6 5 6 9 11 9 8 8 9 10 8 8 9 10 7 6 7 7 7 6 7 7 7 6 7 7
19 19 18 17 16 17 16 17 17 15 15 15 15 13 14 14 15 15 15 15 13 13 12 12 13 12 13 13 12 11 11 10 8 8 8 7 7 7 9 10 6 8 8 7 8 9 8 9 8 10 9 8 7 8 7 8 7 8 8 7 7 7
20 19 18 17 17 18 17 16 16 15 16 15 14 13 12 13 13 14 15 15 13 12 11 13 13 13 13 13 13 13 11 11 10 8 7 11 10 10 9 8 7 7 8 6 7 9 8 8 9 10 9 9 8 8 8 7 9 8 7 6 6 7
18 17 19 18 17 17 18 16 16 16 15 15 16 17 15 15 16 15 15 14 14 14 14 13 12 12 13 13 12 12 12 11 10 8 8 8 11 11 9 9 7 8 8 8 6 9 8 7 9 9 9 10 9 8 8 7 8 8 8 7 7 9
Wind_Direction
169 168 167 162 162 161 161 162 160 154 156 156 156 156 156 164 165 169 167 157 160 179 166 158 166 166 155 163 173 148 153 152 154 152 149 147 143 143 143 143 144 144 145 141 144 140 133 128 134 142 203 275 331 331 6 10 238 110 84 89 92 95
169 167 166 163 160 162 159 173 168 163 163 159 160 158 161 173 177 173 187 164 180 181 172 174 168 164 171 162 160 153 157 159 158 154 153 153 149 149 152 155 158 161 156 158 155 165 154 143 143 183 212 212 316 341 68 239 282 84 89 97 93 102
172 164 163 169 159 157 164 176 163 166 164 167 163 170 174 175 177 180 183 178 193 186 186 181 162 185 173 167 157 159 162 164 164 159 163 161 159 156 161 168 172 173 176 171 190 189 176 162 159 196 206 305 287 256 209 169 185 86 86 92 99 104
165 162 159 169 157 164 168 173 172 170 171 174 167 181 179 177 180 174 183 181 187 187 192 185 157 194 155 172 157 162 169 169 173 171 171 173 169 166 170 179 181 184 190 195 200 212 186 165 159 147 167 154 269 298 274 289 82 98 100 101 104 108
168 159 169 167 163 165 170 173 171 174 176 175 173 183 180 179 185 170 179 189 187 185 198 184 166 187 184 172 172 175 174 184 186 184 186 188 184 171 185 183 188 195 203 206 213 203 172 164 127 94 130 222 236 217 211 134 115 103 101 99 103 107
171 170 165 169 167 160 175 178 171 176 181 178 178 179 179 184 187 173 179 190 193 187 192 170 182 185 190 174 182 186 190 187 189 191 189 201 194 178 198 190 190 197 210 210 217 189 192 174 154 131 158 207 252 175 170 103 107 99 99 101 105 101
172 170 173 166 166 162 182 179 172 179 180 177 189 177 183 187 185 183 188 181 198 192 188 176 172 190 193 186 196 188 182 188 189 195 185 209 197 185 204 198 189 201 212 215 199 199 182 170 128 132 114 194 251 206 122 130 101 100 101 97 98 100
171 171 169 175 173 165 177 182 173 178 183 177 184 180 187 188 182 186 193 188 189 195 193 192 180 191 190 192 190 179 188 186 192 197 183 215 200 192 210 205 194 203 207 205 196 200 176 167 94 109 142 221 220 44 10 103 112 114 102 102 107 100
172 172 173 180 174 174 178 182 178 180 191 176 186 183 191 180 188 186 196 193 191 193 197 193 180 193 191 191 192 180 196 186 192 198 179 214 199 204 210 208 200 212 202 201 204 166 182 159 108 116 143 281 322 171 146 103 123 108 105 101 103 109
176 173 176 183 178 181 173 175 180 187 193 176 193 186 192 188 187 187 192 198 195 198 201 188 185 194 187 191 188 192 192 187 197 199 183 208 197 204 209 203 202 219 198 200 181 171 162 106 68 16 251 147 261 160 140 125 112 104 106 110 110 119
180 173 176 184 181 177 172 185 180 184 188 186 188 194 194 190 193 193 187 201 196 203 205 189 186 195 183 190 187 191 193 186 194 198 187 203 208 202 207 203 210 213 213 178 200 65 26 42 126 184 222 232 212 139 135 138 143 122 116 119 121 122
174 177 176 187 177 178 180 184 190 185 186 186 180 198 192 195 189 199 195 194 198 205 206 191 187 194 188 186 185 188 193 186 191 191 193 197 204 209 203 207 208 203 126 48 52 93 113 108 133 206 215 230 146 150 142 178 85 87 106 121 123 125
169 172 181 185 181 181 184 183 190 187 185 188 188 197 196 200 183 199 201 191 199 203 202 195 188 197 189 188 186 184 191 189 190 191 194 197 202 203 215 208 204 197 104 112 80 100 122 167 166 196 235 182 146 150 129 101 87 106 122 141 107 128
169 174 179 185 178 186 185 187 185 188 185 181 182 198 198 199 191 205 198 192 198 198 200 191 187 195 196 190 183 189 185 188 196 180 192 195 201 204 211 175 210 169 67 72 68 74 78 40 295 272 223 146 141 99 113 120 131 112 108 116 134 136
167 171 182 181 176 187 186 190 187 189 189 175 193 194 200 199 192 202 197 189 196 193 199 187 190 190 198 191 182 187 188 188 191 185 190 197 208 198 204 177 179 90 118 115 94 78 50 239 250 242 146 147 111 136 148 90 106 141 113 106 154 140
166 171 184 185 174 185 183 191 191 185 189 180 176 187 202 200 200 197 196 185 191 188 195 185 189 190 201 195 187 189 185 188 178 187 200 193 207 212 210 199 111 126 134 129 127 148 185 206 211 162 110 110 141 135 127 133 151 128 146 150 128 143
165 169 178 185 177 187 171 194 192 183 180 180 190 195 197 197 200 197 192 185 184 182 191 182 188 193 200 203 197 193 187 183 180 192 192 200 204 224 205 121 123 138 127 132 147 165 190 177 117 95 55 72 159 171 130 140 168 130 120 124 131 150
161 164 172 180 180 179 173 184 192 181 181 182 192 199 197 200 197 199 192 186 179 179 188 179 191 194 206 212 202 192 182 183 188 195 203 185 225 233 216 80 97 169 157 136 149 154 162 153 129 119 130 184 160 189 107 155 97 131 152 155 151 138
157 159 166 176 178 177 169 181 187 180 184 188 195 198 203 202 196 200 194 185 178 178 187 182 191 197 209 212 208 190 193 181 198 199 209 205 208 232 198 111 130 162 172 156 163 152 160 146 146 163 164 169 156 108 146 133 168 184 149 158 149 157
158 159 164 176 176 178 176 182 181 186 180 188 191 196 200 205 191 200 194 186 178 177 189 188 193 197 207 213 209 189 194 184 201 211 207 218 223 224 213 141 163 147 169 157 173 162 167 153 152 164 162 167 180 165 164 169 196 167 158 152 161 175
162 160 166 174 179 179 180 179 181 186 183 183 191 192 198 209 185 200 194 190 180 182 188 188 194 199 202 209 215 189 193 198 205 204 219 205 234 237 209 167 115 187 159 157 179 188 170 152 154 158 166 164 140 212 147 176 202 174 181 170 164 183
167 166 169 177 179 184 180 177 175 181 182 180 188 193 191 206 195 196 196 193 183 185 188 190 196 198 200 204 203 197 193 204 207 211 214 216 221 237 206 173 132 177 172 157 176 199 160 162 171 170 161 161 173 193 179 213 221 195 183 174 172 188
174 171 172 176 179 183 182 174 175 173 183 176 191 199 194 197 200 192 197 194 187 186 189 191 194 200 196 201 202 200 201 202 207 211 212 226 215 222 203 197 141 195 166 173 191 171 175 185 176 168 161 165 186 191 179 211 233 223 193 183 178 192
178 173 172 175 177 183 182 175 174 168 179 182 188 199 196 186 195 189 197 196 191 189 192 193 192 200 195 197 201 202 202 203 204 210 215 214 225 210 203 225 165 190 168 186 183 177 179 189 185 167 173 200 170 201 189 198 192 210 205 188 200 199
179 176 171 169 176 180 179 171 171 166 178 194 184 193 186 198 201 193 196 195 195 189 194 197 193 200 195 198 199 202 203 201 202 206 214 219 226 201 214 205 201 173 195 210 174 182 188 185 181 189 174 170 164 204 256 144 177 182 197 200 202 216
178 176 175 173 179 179 179 172 170 169 171 193 185 180 186 202 197 195 197 191 196 190 193 199 196 199 198 196 198 201 201 199 202 204 213 225 241 229 216 208 190 203 195 180 191 167 180 181 190 209 244 234 134 166 278 143 187 171 184 217 201 209
176 176 173 174 179 176 174 179 180 174 171 178 180 183 183 206 199 196 198 191 194 191 195 196 203 199 200 199 198 201 200 203 202 204 213 211 234 250 227 217 201 199 180 203 199 179 184 180 184 229 224 229 234 229 268 182 212 126 184 192 220 200
176 175 175 175 181 180 175 177 180 179 174 171 179 179 187 192 197 192 196 187 189 192 196 196 202 206 199 205 200 201 201 201 205 207 208 205 210 227 230 216 210 200 198 200 198 195 185 164 188 203 210 216 229 231 232 240 261 269 277 210 192 216
175 173 178 179 184 179 181 178 180 177 175 174 173 178 186 199 185 193 189 185 189 189 196 201 202 207 204 205 200 204 200 200 209 206 196 211 209 229 236 222 204 204 199 196 192 200 193 185 200 192 189 212 220 226 226 224 240 248 254 259 237 190
177 179 181 181 186 184 183 179 182 183 176 173 172 175 186 178 183 187 187 185 190 189 191 203 209 208 206 208 204 201 204 205 207 208 206 220 189 219 256 244 221 205 202 198 193 196 199 179 188 201 207 206 215 221 229 227 222 223 244 262 279 214
181 178 174 177 188 188 184 184 183 185 180 176 174 172 175 178 184 190 196 193 194 196 197 199 205 208 206 210 204 201 206 205 203 200 205 260 280 177 225 231 251 219 202 202 188 183 192 190 199 204 209 211 219 220 226 218 221 219 233 230 227 247
179 175 171 174 188 190 190 189 190 188 184 182 176 174 176 180 183 188 196 193 194 199 200 202 203 207 205 208 206 202 203 206 196 200 191 184 196 228 200 220 234 215 204 196 185 193 195 198 196 206 209 219 227 230 221 227 220 224 219 233 243 253
180 175 173 179 185 187 192 195 195 195 195 186 181 175 176 178 183 187 192 195 192 200 201 203 202 206 204 205 203 199 201 203 202 177 188 197 206 200 204 232 225 204 198 191 191 193 197 198 197 206 212 215 228 222 228 224 234 228 217 236 245 239
183 180 178 180 184 188 195 199 201 199 198 195 183 180 179 176 179 188 190 193 195 200 201 202 201 205 202 203 203 202 198 203 200 177 166 201 208 205 220 231 220 195 192 200 198 197 201 199 204 211 219 225 223 232 224 221 225 226 228 221 229 245
188 191 185 181 186 194 199 201 203 200 198 200 193 185 184 180 177 185 192 192 194 199 199 198 204 204 204 203 200 199 199 201 193 189 175 199 205 219 212 232 217 201 194 190 196 197 205 207 210 216 218 224 228 226 225 224 221 232 231 220 227 240
183 184 186 186 189 192 197 198 198 199 203 203 201 195 189 184 179 183 190 194 193 194 198 201 203 201 201 202 199 199 196 198 194 182 186 197 199 208 210 215 202 197 190 186 192 197 204 202 213 220 223 226 234 234 224 220 225 222 234 228 224 232
187 185 187 187 185 189 199 197 192 197 206 205 203 201 197 188 180 178 189 197 195 197 201 202 195 199 196 199 197 198 197 195 193 166 203 205 209 203 194 206 202 194 196 202 198 212 199 208 212 216 220 221 223 230 223 219 227 225 222 240 243 233